Regional Weather Roundup
Issued by NWS Cleveland, OH

Home | Current Version | Previous Version | Graphics & Text | Print | Product List | Glossary On
Versions: 1 2 3 4 5 6 7 8 9 10 11 12 13 14 15 16 17 18 19 20 21 22 23 24 25 26 27 28 29 30 31 32 33 34 35 36 37 38 39 40 41 42 43 44 45 46 47 48 49 50
383
ASUS41 KCLE 102112
RWRCLE
OHIO REGIONAL WEATHER ROUNDUP
NATIONAL WEATHER SERVICE WILMINGTON, OH
400 PM EST SAT DEC 10 2016

NOTE: "FAIR" INDICATES FEW OR NO CLOUDS BELOW 12,000 FEET WITH NO
SIGNIFICANT WEATHER AND/OR OBSTRUCTIONS TO VISIBILITY.

OHZ001>008-015>018-024>027-034-035-043-044-102200-
   NORTHWEST OHIO

CITY           SKY/WX    TMP DP  RH WIND       PRES   REMARKS
DEFIANCE       CLOUDY    27  13  55 W7        30.46R WCI  19
FINDLAY        CLOUDY    27  14  58 W10       30.45R WCI  17
TOLEDO EXPRESS CLOUDY    27  16  63 SW12      30.43S WCI  17
TOLEDO EXEC    CLOUDY    28  16  60 SW14      30.45R WCI  17
LIMA           CLOUDY    25  16  68 SW9       30.45R WCI  15
$$

OHZ009>014-019>023-028>033-038-089-102200-
   NORTHEAST OHIO

CITY           SKY/WX    TMP DP  RH WIND       PRES   REMARKS
CLE-HOPKINS    CLOUDY    27  13  55 SW12      30.47R WCI  17
CLE-LAKEFRONT  CLOUDY    26  15  63 SW17      30.45R WCI  13
CUY CO. ARPT   LGT SNOW  27  16  63 SW15      30.44R WCI  15
LORAIN-ELYRIA  CLOUDY    26  14  60 W13       30.45R WCI  15
ASHTABULA      CLOUDY    25  17  72 W13       30.41R WCI  14
AKRON-CANTON   FLURRIES  25  13  60 W12G21    30.43R WCI  14
WOOSTER        CLOUDY    24  14  65 W9        30.45R WCI  14
MANSFIELD      CLOUDY    23  14  68 SW12      30.43S WCI  12
YOUNGSTOWN     FLURRIES  25  14  63 SW12      30.41R WCI  14
$$

OHZ042-051>053-060>062-070>072-077>081-102200-
  SOUTHWEST OHIO

CITY           SKY/WX    TMP DP  RH WIND       PRES   REMARKS
CINC-COVINGTON PTSUNNY   30  17  58 S6        30.46F WCI  24
CINC-LUNKEN    PTSUNNY   31  18  58 S6        30.51F WCI  25
HAMILTON       FAIR      31  17  56 VRB3      30.50S
DAYTON         PTSUNNY   26  14  60 SW9       30.47R WCI  17
WRIGHT-PAT AFB FAIR      28  15  60 SW8       30.47S WCI  19
DAYTON GENERAL FAIR      27  15  61 SW5       30.46S WCI  22
WILMINGTON     FAIR      26  15  63 W7        30.46F WCI  18
$$

OHZ036-037-039>041-045>050-054>059-063>069-073>076-082>088-102200-
  CENTRAL AND SOUTHEAST OHIO

CITY           SKY/WX    TMP DP  RH WIND       PRES   REMARKS
COLUMBUS       CLOUDY    27  16  63 W8        30.48S WCI  19
OSU AIRPORT    CLOUDY    27  15  61 W7        30.47F WCI  19
BOLTON FIELD   CLOUDY    27  16  63 W6        30.48S WCI  20
RICKENBACK AFB   N/A     27  15  60 W8        30.48S WCI  19
NEWARK         CLOUDY    26  16  65 W9        30.47S WCI  17
MARION         CLOUDY    25  14  63 SW9       30.46R WCI  15
LANCASTER      CLOUDY    28  17  63 W5        30.48S WCI  23
ZANESVILLE     CLOUDY    27  15  61 W8        30.48S WCI  19
NEW PHILLY     CLOUDY    26  15  63 W8        30.48R WCI  18
$$




USA.gov is the U.S. government's official web portal to all federal, state and local government web resources and services.